This is the latest recevied weather packets stored in our database for station/object SQ7IQO. If no packets are shown the sender has not sent any weather packets the latest 10 day(s).
| Time | Temp. | Humidity | Pressure | Rain* | Wind** | Luminosity | Snow |
|---|---|---|---|---|---|---|---|
| 1787908839 | 23.33° C | 46% | 1020.6 hPa | 0 mm | 0.89 m/s, ° | - | - |
| 1787908779 | 22.78° C | 46% | 1020.7 hPa | 0 mm | 0.45 m/s, ° | - | - |
| 1787908719 | 23.33° C | 45% | 1020.7 hPa | 0 mm | 1.34 m/s, ° | - | - |
| 1787908659 | 23.33° C | 47% | 1020.7 hPa | 0 mm | 1.34 m/s, ° | - | - |
| 1787908599 | 23.89° C | 48% | 1020.6 hPa | 0 mm | 0.89 m/s, ° | - | - |
| 1787908539 | 23.33° C | 48% | 1020.7 hPa | 0 mm | 0.45 m/s, ° | - | - |
| 1787908479 | 23.89° C | 48% | 1020.7 hPa | 0 mm | 0.89 m/s, ° | - | - |
| 1787908419 | 23.89° C | 49% | 1020.7 hPa | 0 mm | 0.45 m/s, ° | - | - |
| 1787908359 | 23.89° C | 47% | 1020.6 hPa | 0 mm | 0.45 m/s, ° | - | - |
| 1787908299 | 23.89° C | 47% | 1020.6 hPa | 0 mm | 0.45 m/s, ° | - | - |
| 1787908239 | 23.89° C | 48% | 1020.5 hPa | 0 mm | 0.45 m/s, ° | - | - |
| 1787908179 | 23.33° C | 49% | 1020.5 hPa | 0 mm | 0 m/s | - | - |
| 1787908119 | 23.89° C | 47% | 1020.5 hPa | 0 mm | 0.45 m/s, ° | - | - |
| 1787908059 | 23.89° C | 48% | 1020.6 hPa | 0 mm | 0.89 m/s, ° | - | - |
| 1787907999 | 23.89° C | 48% | 1020.6 hPa | 0 mm | 0.89 m/s, ° | - | - |
| 1787907939 | 23.89° C | 51% | 1020.7 hPa | 0 mm | 0.45 m/s, ° | - | - |
| 1787907880 | 23.89° C | 49% | 1020.6 hPa | 0 mm | 0 m/s | - | - |
| 1787907819 | 23.89° C | 50% | 1020.7 hPa | 0 mm | 0.89 m/s, ° | - | - |
| 1787907760 | 23.89° C | 50% | 1261.9 hPa | 0 mm | 0 m/s | - | - |
| 1787907699 | 23.33° C | 50% | 1020.7 hPa | 0 mm | 0 m/s | - | - |
| 1787907640 | 23.89° C | 51% | 1014.9 hPa | 0 mm | 0 m/s | - | - |
| 1787907579 | 23.89° C | 49% | 1020.8 hPa | 0 mm | 0 m/s | - | - |
| 1787907520 | 23.33° C | 50% | 1020.8 hPa | 0 mm | 0 m/s | - | - |
| 1787907459 | 23.33° C | 49% | 1020.8 hPa | 0 mm | 0.45 m/s, ° | - | - |
| 1787907399 | 22.78° C | 51% | 1020.8 hPa | 0 mm | 0.45 m/s, ° | - | - |
* Rain latest hour (hover to see other rain measurements)
** Current wind speed in m/s (hover to see current wind gust speed)